TimeCDT,TemperatureF,Dew PointF,Humidity,Sea Level PressureIn,VisibilityMPH,Wind Direction,Wind SpeedMPH,Gust SpeedMPH,PrecipitationIn,Events,Conditions,WindDirDegrees,DateUTC
12:15 AM,34.3,22.5,62,29.85,10.0,WNW,8.1,-,N/A,,Clear,300,2012-11-01 05:15:00
12:35 AM,33.3,22.6,65,29.85,10.0,WNW,8.1,-,N/A,,Clear,290,2012-11-01 05:35:00
12:55 AM,32.9,22.6,66,29.85,10.0,WNW,8.1,-,N/A,,Clear,290,2012-11-01 05:55:00
1:15 AM,32.4,22.6,67,29.85,10.0,WNW,8.1,-,N/A,,Unknown,290,2012-11-01 06:15:00
1:35 AM,32.0,22.5,68,29.85,10.0,WNW,8.1,-,N/A,,Unknown,290,2012-11-01 06:35:00
1:55 AM,32.0,22.1,67,29.86,10.0,WNW,8.1,-,N/A,,Unknown,290,2012-11-01 06:55:00
2:15 AM,32.0,22.1,67,29.85,10.0,WNW,8.1,-,N/A,,Clear,290,2012-11-01 07:15:00
2:35 AM,32.0,22.1,67,29.86,10.0,WNW,8.1,-,N/A,,Clear,290,2012-11-01 07:35:00
2:55 AM,32.0,22.1,67,29.86,10.0,WNW,8.1,-,N/A,,Clear,290,2012-11-01 07:55:00
3:15 AM,31.8,22.1,67,29.86,10.0,WNW,8.1,-,N/A,,Clear,290,2012-11-01 08:15:00
3:35 AM,32.0,22.1,67,29.86,10.0,WNW,8.1,-,N/A,,Clear,290,2012-11-01 08:35:00
3:55 AM,32.0,22.1,67,29.86,10.0,WNW,9.2,-,N/A,,Clear,290,2012-11-01 08:55:00
4:15 AM,32.0,22.1,67,29.86,10.0,WNW,8.1,-,N/A,,Clear,290,2012-11-01 09:15:00
4:35 AM,32.2,22.1,66,29.86,10.0,WNW,8.1,-,N/A,,Clear,290,2012-11-01 09:35:00
4:55 AM,32.0,22.5,68,29.86,10.0,WNW,9.2,-,N/A,,Clear,290,2012-11-01 09:55:00
5:15 AM,32.0,22.5,68,29.86,10.0,WNW,9.2,-,N/A,,Clear,290,2012-11-01 10:15:00
5:35 AM,31.6,22.1,68,29.86,10.0,WNW,9.2,-,N/A,,Clear,290,2012-11-01 10:35:00
5:55 AM,31.1,22.5,70,29.86,10.0,WNW,8.1,-,N/A,,Clear,290,2012-11-01 10:55:00
6:15 AM,32.0,23.0,69,29.86,10.0,WNW,8.1,-,N/A,,Scattered Clouds,290,2012-11-01 11:15:00
6:35 AM,31.5,23.0,71,29.86,10.0,WNW,6.9,-,N/A,,Unknown,290,2012-11-01 11:35:00
6:55 AM,32.2,22.5,67,29.87,10.0,WNW,9.2,-,N/A,,Unknown,290,2012-11-01 11:55:00
7:15 AM,32.0,22.5,68,29.88,10.0,West,6.9,-,N/A,,Unknown,280,2012-11-01 12:15:00
7:35 AM,32.0,22.1,67,29.89,10.0,WNW,6.9,-,N/A,,Unknown,290,2012-11-01 12:35:00
7:55 AM,33.3,23.0,66,29.89,10.0,West,6.9,-,N/A,,Unknown,280,2012-11-01 12:55:00
8:15 AM,33.8,23.0,65,29.89,10.0,WNW,5.8,-,N/A,,Overcast,290,2012-11-01 13:15:00
8:35 AM,34.9,23.4,63,29.89,10.0,West,8.1,-,N/A,,Unknown,280,2012-11-01 13:35:00
8:55 AM,34.9,23.4,63,29.90,10.0,West,6.9,-,N/A,,Scattered Clouds,280,2012-11-01 13:55:00
9:15 AM,38.1,23.0,55,29.90,10.0,West,5.8,-,N/A,,Unknown,280,2012-11-01 14:15:00
9:35 AM,40.5,22.1,48,29.90,10.0,West,8.1,-,N/A,,Unknown,280,2012-11-01 14:35:00
9:55 AM,42.8,20.8,42,29.90,10.0,West,8.1,-,N/A,,Unknown,270,2012-11-01 14:55:00
10:15 AM,45.0,18.1,34,29.90,10.0,WNW,8.1,-,N/A,,Clear,290,2012-11-01 15:15:00
10:35 AM,46.8,17.8,32,29.90,10.0,West,8.1,-,N/A,,Clear,280,2012-11-01 15:35:00
10:55 AM,47.8,19.6,33,29.91,10.0,West,9.2,-,N/A,,Clear,280,2012-11-01 15:55:00
11:15 AM,49.1,18.1,29,29.91,10.0,WNW,10.4,-,N/A,,Clear,290,2012-11-01 16:15:00
11:35 AM,50.4,18.9,29,29.90,10.0,West,11.5,-,N/A,,Scattered Clouds,280,2012-11-01 16:35:00
11:55 AM,48.6,19.6,32,29.90,10.0,West,10.4,-,N/A,,Unknown,270,2012-11-01 16:55:00
12:15 PM,51.4,21.0,30,29.89,10.0,West,16.1,19.6,N/A,,Clear,260,2012-11-01 17:15:00
12:35 PM,52.5,20.1,28,29.88,10.0,West,16.1,20.7,N/A,,Scattered Clouds,270,2012-11-01 17:35:00
12:55 PM,53.4,21.0,28,29.87,10.0,West,13.8,17.3,N/A,,Scattered Clouds,280,2012-11-01 17:55:00
1:15 PM,55.2,21.4,27,29.87,10.0,West,11.5,18.4,N/A,,Mostly Cloudy,280,2012-11-01 18:15:00
1:35 PM,54.3,18.7,25,29.85,10.0,WNW,13.8,17.3,N/A,,Mostly Cloudy,290,2012-11-01 18:35:00
1:55 PM,53.6,20.7,28,29.85,10.0,WNW,10.4,20.7,N/A,,Mostly Cloudy,290,2012-11-01 18:55:00
2:15 PM,53.8,21.7,29,29.84,10.0,West,10.4,-,N/A,,Mostly Cloudy,260,2012-11-01 19:15:00
2:35 PM,53.6,23.4,31,29.84,10.0,WSW,12.7,18.4,N/A,,Mostly Cloudy,250,2012-11-01 19:35:00
2:55 PM,52.9,24.1,33,29.84,10.0,WSW,10.4,-,N/A,,Unknown,250,2012-11-01 19:55:00
3:15 PM,52.9,25.5,35,29.84,10.0,West,12.7,-,N/A,,Overcast,260,2012-11-01 20:15:00
3:35 PM,52.9,26.4,36,29.83,10.0,West,10.4,-,N/A,,Overcast,260,2012-11-01 20:35:00
3:55 PM,53.2,27.3,37,29.83,10.0,WSW,9.2,-,N/A,,Unknown,250,2012-11-01 20:55:00
4:15 PM,53.4,27.5,37,29.82,10.0,WSW,12.7,18.4,N/A,,Overcast,250,2012-11-01 21:15:00
4:35 PM,52.9,27.9,38,29.82,10.0,WSW,12.7,18.4,N/A,,Mostly Cloudy,240,2012-11-01 21:35:00
4:55 PM,52.3,28.6,40,29.82,10.0,WSW,11.5,-,N/A,,Overcast,240,2012-11-01 21:55:00
5:15 PM,51.1,29.5,43,29.81,10.0,WSW,5.8,-,N/A,,Overcast,250,2012-11-01 22:15:00
5:35 PM,50.4,31.3,48,29.81,10.0,WSW,4.6,-,N/A,,Unknown,250,2012-11-01 22:35:00
5:55 PM,49.6,31.5,50,29.81,10.0,SW,4.6,-,N/A,,Unknown,230,2012-11-01 22:55:00
6:15 PM,48.2,31.1,52,29.81,10.0,Calm,Calm,-,N/A,,Unknown,0,2012-11-01 23:15:00
6:35 PM,47.5,30.9,53,29.82,10.0,Calm,Calm,-,N/A,,Unknown,0,2012-11-01 23:35:00
6:55 PM,47.5,30.9,53,29.82,10.0,ENE,3.5,-,N/A,,Unknown,70,2012-11-01 23:55:00
7:15 PM,45.5,32.0,59,29.83,10.0,Calm,Calm,-,N/A,,Unknown,0,2012-11-02 00:15:00
7:35 PM,45.0,32.5,62,29.82,10.0,ENE,5.8,-,N/A,,Unknown,60,2012-11-02 00:35:00
7:55 PM,46.0,31.8,58,29.83,10.0,NE,3.5,-,N/A,,Unknown,50,2012-11-02 00:55:00
8:15 PM,45.9,32.0,58,29.82,10.0,Calm,Calm,-,N/A,,Unknown,0,2012-11-02 01:15:00
8:35 PM,44.6,32.0,61,29.83,10.0,Calm,Calm,-,N/A,,Unknown,0,2012-11-02 01:35:00
8:55 PM,42.4,32.9,69,29.83,10.0,Calm,Calm,-,N/A,,Unknown,0,2012-11-02 01:55:00
9:15 PM,43.0,32.4,66,29.83,10.0,Calm,Calm,-,N/A,,Unknown,0,2012-11-02 02:15:00
9:35 PM,42.3,32.0,67,29.83,10.0,Calm,Calm,-,N/A,,Unknown,0,2012-11-02 02:35:00
9:55 PM,38.7,31.1,74,29.83,10.0,Calm,Calm,-,N/A,,Unknown,0,2012-11-02 02:55:00
10:15 PM,39.7,31.6,73,29.83,10.0,Calm,Calm,-,N/A,,Clear,0,2012-11-02 03:15:00
10:35 PM,38.7,31.5,75,29.83,10.0,Calm,Calm,-,N/A,,Clear,0,2012-11-02 03:35:00
10:55 PM,39.4,31.3,73,29.82,10.0,Calm,Calm,-,N/A,,Clear,0,2012-11-02 03:55:00
11:15 PM,36.7,31.5,81,29.82,10.0,Calm,Calm,-,N/A,,Clear,0,2012-11-02 04:15:00
11:35 PM,36.3,31.6,83,29.83,10.0,North,10.4,-,N/A,,Clear,350,2012-11-02 04:35:00
11:55 PM,36.3,31.1,81,29.83,10.0,North,6.9,-,N/A,,Clear,10,2012-11-02 04:55:00